Temperature
18 18 18 18 18 17 17 17 17 17 17 17 17 16 16 16 16 16 16 16 15 15 15 15 15 15 15 15 15 15 15 15 14 14 14 14 13 13 13 13 13 13 13
18 18 18 17 17 17 17 17 17 17 17 17 16 16 16 16 16 16 16 15 15 15 15 15 15 15 15 15 15 15 15 15 14 14 14 14 13 13 13 13 13 13 13
18 18 18 17 17 17 17 17 17 17 17 17 16 16 16 16 16 16 15 15 15 15 15 15 15 15 15 15 15 15 15 15 14 14 14 14 14 13 13 13 13 13 13
18 18 18 17 17 17 17 17 17 17 17 17 16 16 16 16 16 16 15 15 15 15 15 15 15 15 15 15 15 15 15 14 14 14 14 14 14 14 13 12 12 12 12
18 18 18 18 18 17 17 17 17 17 16 16 16 16 16 16 16 15 15 15 15 15 15 15 15 15 15 15 15 15 15 14 14 14 14 14 14 14 13 13 12 12 12
18 18 18 18 18 17 17 17 17 16 16 16 16 16 16 16 15 15 15 15 15 15 15 15 15 15 15 15 15 15 14 14 14 14 14 14 14 14 14 13 13 12 12
18 18 18 18 17 17 17 17 17 17 16 16 16 16 16 15 15 15 15 15 15 15 15 15 15 15 15 15 14 14 14 14 14 14 14 14 14 14 14 13 13 12 12
18 18 18 18 18 17 17 17 17 17 16 16 16 16 16 15 15 15 15 15 15 15 15 15 15 15 15 14 14 14 14 14 14 14 14 14 14 14 13 13 13 12 12
18 18 18 18 18 18 17 17 17 17 16 16 16 16 15 15 15 15 15 15 15 14 14 14 14 15 15 14 14 14 14 14 14 14 14 14 14 13 13 13 13 13 12
18 18 18 18 18 18 17 17 17 17 16 16 16 16 15 15 15 15 15 15 15 14 14 14 14 14 14 14 14 14 14 14 14 14 14 14 13 13 13 13 13 12 12
18 18 18 18 18 17 17 17 17 16 16 16 16 16 15 15 15 15 15 15 15 14 14 14 14 14 14 14 14 14 14 14 14 14 14 13 13 13 13 13 13 12 12
18 17 17 17 17 17 17 17 17 16 16 16 16 16 15 15 15 15 15 15 15 14 14 14 14 14 14 14 14 14 14 14 14 14 13 13 13 13 13 13 13 12 12
17 17 17 17 17 17 17 17 17 16 16 16 16 16 15 15 15 15 15 14 14 14 14 14 14 14 14 14 14 14 14 14 14 13 13 13 13 13 13 13 12 12 12
17 17 17 17 17 17 17 17 17 16 16 16 16 15 15 15 15 14 14 14 14 14 14 14 14 14 14 14 14 14 13 13 13 13 13 13 13 13 13 12 12 12 12
17 17 17 17 17 17 17 17 17 16 16 16 15 15 15 15 14 14 14 14 14 14 14 14 14 14 14 14 13 13 13 13 13 13 13 13 13 12 12 12 12 12 12
16 17 17 17 17 17 17 17 16 16 16 15 15 15 15 15 14 14 14 14 14 14 14 14 14 14 13 13 13 13 13 13 13 13 13 13 12 12 12 12 12 12 11
16 16 16 17 17 17 17 17 16 16 16 15 15 15 15 14 14 14 14 14 14 13 13 13 13 13 13 13 13 13 13 13 13 13 13 13 12 12 12 12 11 11 11
16 16 16 16 16 16 16 16 16 16 15 15 15 15 15 14 14 14 14 13 13 13 13 13 13 13 13 13 13 13 13 13 13 13 12 12 12 12 12 11 11 11 11
16 16 16 16 16 16 16 16 16 15 15 15 15 15 14 14 14 14 13 13 13 13 13 13 13 13 13 12 12 12 12 12 12 12 12 12 12 12 11 11 11 11 11
16 16 16 16 16 16 16 16 16 15 15 15 15 15 14 14 14 13 13 13 13 13 13 13 13 13 13 12 12 12 12 12 12 12 12 12 11 11 11 11 11 11 10
15 15 16 16 16 16 16 16 15 15 15 15 15 14 14 14 13 13 13 13 13 13 13 12 12 12 12 12 12 12 12 12 12 12 12 11 11 11 11 11 11 10 10
15 15 15 15 15 15 15 15 15 15 15 15 14 14 14 13 13 13 13 13 13 12 12 12 12 12 12 12 12 11 11 11 11 11 11 11 11 11 11 10 10 10 10
15 15 15 15 15 15 15 15 15 15 14 14 14 14 14 13 13 13 13 12 12 12 12 12 12 12 12 11 11 11 11 11 11 11 11 11 10 10 10 10 10 10 9
15 15 15 15 15 15 15 15 14 14 14 14 14 13 13 13 13 13 12 12 12 12 12 11 11 11 11 11 11 11 11 11 11 10 10 10 10 10 10 10 10 9 9
14 14 14 14 14 14 14 14 14 14 14 13 13 13 13 13 12 12 12 12 12 12 12 11 11 11 11 11 11 10 10 10 10 10 10 10 10 10 10 10 9 9 9
14 14 14 14 14 14 14 13 13 13 13 13 13 13 13 12 12 12 12 12 11 11 11 11 11 11 11 10 10 10 10 10 10 10 10 10 10 9 9 9 9 9 9
Wind_Speed
5 3 4 5 5 5 5 5 5 4 4 3 3 3 1 1 2 3 5 5 5 5 6 4 4 4 4 4 5 5 5 4 3 4 4 5 5 6 5 6 7 8 10
3 3 4 4 5 5 5 5 5 5 5 3 3 2 2 1 1 2 4 5 5 5 5 5 4 4 4 5 4 4 3 2 2 3 3 2 4 4 5 5 5 6 8
7 6 5 5 5 6 6 5 5 5 5 5 4 3 3 3 2 2 2 3 4 5 5 5 5 4 4 4 3 3 4 3 1 2 3 3 2 1 3 5 5 5 5
7 6 6 6 6 6 5 5 4 4 4 5 5 5 4 2 1 0 0 2 4 4 5 5 5 4 3 3 3 2 2 4 2 1 2 2 3 3 1 3 4 5 6
8 8 8 8 6 6 6 5 5 3 3 4 5 5 4 3 2 1 2 2 3 3 4 5 5 4 3 3 2 2 2 2 3 2 2 3 3 3 3 1 2 3 4
7 7 6 6 5 5 5 5 5 4 3 4 4 5 5 5 4 3 2 1 1 2 3 4 4 4 3 3 2 2 3 2 3 2 2 3 3 2 3 3 1 1 2
7 7 7 7 7 7 6 6 6 5 4 5 5 5 5 5 5 4 3 2 1 0 1 2 2 2 3 3 4 3 3 3 3 3 2 2 2 3 3 4 2 1 1
6 7 9 8 8 8 7 7 7 6 5 5 5 4 5 4 3 3 3 3 2 2 1 2 3 3 4 4 4 3 2 3 3 3 3 2 2 2 3 4 4 2 1
6 7 7 8 8 8 8 8 8 6 6 6 5 4 4 4 4 4 3 2 2 2 3 3 3 3 4 4 4 3 3 3 3 3 3 2 2 2 2 3 4 4 2
3 5 5 7 7 8 7 7 7 7 6 6 5 4 4 4 4 4 4 4 3 3 3 3 3 3 3 4 3 3 3 4 2 2 3 3 2 2 2 2 2 2 4
4 4 4 5 5 5 6 6 6 6 5 6 5 5 4 4 3 3 4 4 3 3 4 4 4 3 3 3 3 3 3 4 3 2 3 2 2 2 2 2 3 2 3
2 3 4 4 5 5 6 6 6 6 6 6 5 5 5 4 4 4 3 3 3 3 4 4 4 4 3 3 4 3 3 3 3 2 3 2 2 3 2 2 3 2 2
1 2 3 4 5 6 6 6 6 6 6 6 6 5 5 5 5 4 3 3 3 3 3 4 4 4 4 3 3 3 3 3 2 3 3 3 3 3 2 2 2 2 2
2 3 4 4 5 5 6 6 6 6 6 6 6 6 6 6 5 5 4 4 4 4 4 3 3 4 4 4 4 4 3 3 2 2 2 3 4 4 4 3 3 3 3
2 3 4 4 4 5 5 6 6 6 6 7 6 6 6 5 5 5 4 4 4 4 4 3 3 3 4 4 5 4 4 3 2 1 1 2 4 5 5 4 4 4 4
3 3 4 4 5 6 6 6 6 6 7 7 7 6 6 5 5 5 5 4 4 4 4 4 4 4 3 5 7 6 4 3 3 2 1 1 2 3 4 5 7 7 6
3 3 4 5 6 7 7 7 7 6 7 7 6 6 6 6 6 5 5 5 4 4 4 4 4 4 4 7 7 7 4 3 3 3 2 1 2 3 2 3 4 4 5
3 4 4 4 5 5 5 5 5 6 6 6 6 6 6 6 5 5 5 5 4 4 4 4 4 4 4 7 7 7 4 3 2 3 3 2 2 3 4 3 2 1 1
4 4 4 4 3 4 5 6 6 6 6 6 6 7 7 7 6 6 6 5 4 4 4 4 4 4 5 7 8 8 4 3 2 2 2 3 3 5 6 5 4 2 2
2 3 2 1 2 4 6 7 6 7 7 8 7 7 7 8 8 8 6 4 4 5 4 4 4 5 4 6 8 8 4 3 2 1 2 4 4 5 7 5 5 4 4
3 2 1 2 3 4 6 7 6 7 7 6 6 6 6 7 7 6 5 5 5 4 4 4 3 4 5 6 8 8 4 4 3 2 2 3 5 5 6 6 5 6 4
2 2 2 2 2 3 6 7 7 6 4 5 5 6 6 6 5 6 5 5 6 5 4 4 3 3 3 5 7 8 7 6 5 4 4 3 5 5 5 4 5 5 4
3 2 2 2 2 3 6 7 6 4 5 5 5 5 5 5 5 6 6 5 5 5 5 4 4 3 3 4 7 8 8 8 5 4 6 5 5 4 3 4 5 4 2
3 2 2 2 2 3 4 5 5 5 6 5 4 4 5 4 4 5 6 6 6 6 5 5 5 4 3 3 3 3 4 5 4 3 3 3 3 2 2 2 2 2 3
2 3 3 3 3 3 3 3 5 6 6 5 4 4 4 5 5 4 4 6 7 8 8 7 7 6 6 7 8 6 5 4 4 3 1 1 1 1 1 1 1 1 2
3 3 3 3 3 3 3 3 5 7 7 5 4 4 4 4 4 4 2 4 5 7 8 8 7 7 8 8 9 9 8 7 8 4 2 2 3 3 3 3 2 2 3
Wind_Direction
228 196 178 159 148 145 145 152 153 148 132 116 115 108 94 50 47 57 64 73 88 104 109 114 110 114 113 118 115 107 96 85 92 88 72 51 51 52 43 42 44 45 45
203 193 177 167 167 167 164 161 164 160 159 152 141 132 123 96 63 49 54 60 77 92 111 118 120 119 113 110 116 118 115 104 84 107 103 66 30 31 38 38 44 39 42
200 196 181 183 175 176 177 175 173 166 165 150 120 93 71 53 40 31 22 30 71 89 105 117 122 121 127 139 142 140 131 138 75 76 125 128 158 34 19 34 39 35 38
199 189 186 187 189 190 179 170 167 161 154 150 151 148 141 148 184 156 38 35 63 84 99 110 116 120 126 135 152 143 133 136 136 79 62 100 138 137 78 13 24 34 39
197 193 194 194 191 180 172 168 158 155 148 152 160 152 146 154 137 101 79 46 40 64 86 102 109 114 122 134 127 120 117 127 139 140 123 94 74 93 131 123 8 21 22
199 198 192 179 177 169 165 164 164 167 161 159 158 159 159 154 145 144 131 86 44 39 64 90 103 109 116 127 133 122 114 115 118 121 128 142 140 148 134 142 144 32 352
192 189 184 181 181 178 178 174 173 176 172 169 169 168 166 161 164 166 168 163 140 78 52 89 100 101 111 116 117 109 105 114 117 127 125 125 134 139 133 133 142 118 341
193 196 194 190 187 185 182 179 181 180 174 174 179 173 164 159 168 173 173 177 178 179 158 128 117 113 114 112 112 106 109 108 110 110 112 111 114 127 141 147 142 121 25
197 197 194 188 187 186 187 184 180 178 177 177 172 171 171 170 176 174 167 168 170 160 144 136 124 114 112 113 113 108 110 105 101 105 107 105 100 106 122 138 145 147 152
201 196 192 193 192 189 184 180 179 182 180 175 178 178 178 177 175 167 170 173 171 147 137 126 123 114 110 111 107 105 114 110 101 106 103 96 96 95 101 120 118 131 150
204 197 195 189 182 174 172 177 179 176 176 178 174 166 168 166 166 170 175 174 162 152 151 148 135 126 119 118 114 111 116 114 103 100 113 113 114 113 109 110 109 111 125
203 193 188 173 171 175 178 182 183 182 186 180 167 168 163 159 165 170 166 158 158 160 157 148 140 139 133 128 128 130 127 126 130 132 126 133 128 119 116 120 125 134 131
199 186 180 180 185 187 188 188 188 189 182 169 165 166 166 169 174 171 159 154 156 152 147 146 153 154 149 145 141 131 129 134 146 155 155 161 144 142 137 135 136 135 123
205 200 198 198 196 194 193 189 192 189 179 168 167 177 182 180 178 170 163 163 162 156 157 158 164 164 157 152 146 139 130 131 138 155 169 171 169 172 163 156 156 140 123
227 213 210 211 201 196 196 192 190 186 178 169 176 189 185 175 167 163 165 163 162 164 161 151 153 154 157 165 161 157 152 145 139 147 183 189 179 177 176 172 169 154 143
270 246 229 215 207 203 199 193 193 188 175 175 185 182 172 168 170 169 164 158 160 158 154 163 166 174 186 177 167 157 156 162 160 166 187 190 174 176 170 169 170 167 164
273 261 242 226 215 207 197 193 193 179 174 179 179 176 172 172 179 174 162 166 169 161 163 174 171 183 192 179 171 164 152 161 171 172 168 180 173 163 153 151 152 169 179
265 264 254 242 233 205 191 182 167 167 175 179 181 177 174 177 176 171 177 179 174 172 176 181 183 184 199 186 175 168 148 159 177 184 187 184 203 184 163 152 148 182 208
253 252 241 231 219 197 179 163 164 166 173 187 193 188 181 179 178 185 190 188 179 183 185 184 183 188 204 193 183 167 152 164 193 211 196 191 209 199 174 161 172 202 257
272 273 260 205 195 198 171 165 175 176 190 198 198 191 183 182 187 194 192 186 182 189 183 184 190 191 200 193 187 175 159 173 195 214 221 212 207 202 184 176 180 203 235
254 241 193 202 211 191 169 173 180 197 204 193 183 179 184 189 192 189 184 174 173 168 173 187 199 198 204 197 191 184 176 185 189 204 233 230 207 201 195 189 193 209 199
250 200 189 225 222 181 173 177 194 203 181 171 174 181 185 192 189 177 178 172 169 170 181 188 206 217 211 200 201 199 200 191 189 210 220 215 198 199 199 194 197 193 178
240 205 191 215 233 198 183 189 200 173 160 165 178 183 182 187 181 179 178 173 175 182 193 192 206 222 214 210 209 209 209 202 203 214 202 195 190 188 200 201 189 175 169
233 206 178 192 229 216 201 198 181 161 158 167 178 178 175 177 177 182 182 182 187 192 197 201 209 217 214 208 201 199 199 201 207 207 186 175 175 167 178 188 188 180 185
236 203 195 205 222 216 205 187 170 159 159 165 174 178 179 177 179 185 195 197 203 201 200 206 201 200 217 220 200 187 191 193 191 157 122 129 145 167 196 204 206 194 189
230 220 213 206 219 212 205 190 175 166 162 166 172 179 179 180 180 180 200 223 216 214 212 208 203 215 218 210 198 195 194 189 174 155 172 197 201 206 210 210 219 216 216
Height
1535 1536 1538 1540 1541 1543 1544 1546 1547 1548 1550 1551 1552 1552 1553 1553 1554 1554 1554 1555 1555 1555 1556 1556 1556 1557 1557 1558 1558 1559 1559 1559 1559 1559 1559 1560 1560 1560 1560 1559 1559 1558 1557
1533 1535 1536 1538 1540 1542 1544 1545 1546 1548 1549 1550 1551 1552 1553 1554 1554 1554 1555 1555 1555 1556 1556 1556 1557 1557 1558 1558 1559 1560 1560 1560 1560 1560 1560 1561 1563 1561 1561 1561 1560 1559 1558
1531 1533 1535 1537 1539 1541 1542 1544 1546 1547 1548 1550 1551 1552 1553 1554 1554 1555 1555 1555 1555 1556 1556 1557 1557 1558 1558 1559 1559 1560 1560 1560 1561 1561 1561 1561 1561 1562 1563 1562 1561 1561 1560
1529 1531 1533 1535 1537 1539 1541 1543 1545 1546 1548 1549 1550 1551 1552 1553 1554 1554 1555 1555 1556 1556 1557 1557 1558 1558 1559 1559 1560 1560 1560 1561 1561 1561 1561 1562 1562 1562 1562 1563 1562 1562 1561
1526 1528 1531 1533 1535 1538 1540 1542 1544 1545 1547 1548 1550 1551 1551 1552 1553 1554 1554 1555 1555 1556 1556 1557 1557 1558 1559 1559 1560 1560 1560 1561 1561 1561 1561 1561 1561 1562 1562 1562 1563 1563 1562
1524 1526 1529 1532 1534 1537 1539 1541 1542 1544 1546 1547 1548 1550 1551 1552 1552 1553 1554 1554 1555 1555 1556 1557 1557 1558 1558 1559 1559 1560 1560 1560 1560 1560 1561 1561 1561 1561 1561 1562 1562 1562 1562
1521 1524 1527 1529 1531 1534 1537 1539 1541 1542 1544 1546 1547 1549 1550 1551 1552 1552 1553 1554 1554 1555 1556 1556 1557 1557 1558 1558 1559 1559 1559 1559 1559 1560 1560 1560 1560 1561 1561 1561 1561 1562 1562
1519 1521 1524 1526 1529 1532 1534 1537 1539 1541 1543 1545 1546 1548 1549 1550 1551 1552 1552 1553 1554 1555 1555 1556 1556 1557 1557 1558 1558 1558 1559 1559 1559 1559 1559 1559 1559 1560 1560 1561 1561 1561 1562
1517 1519 1521 1524 1527 1529 1532 1535 1537 1539 1541 1543 1545 1547 1548 1549 1550 1551 1552 1553 1553 1554 1555 1555 1556 1556 1557 1557 1557 1557 1558 1558 1559 1559 1559 1559 1559 1559 1560 1560 1561 1561 1561
1515 1517 1520 1522 1525 1527 1530 1533 1536 1538 1540 1542 1544 1545 1547 1548 1549 1550 1551 1552 1553 1553 1554 1554 1555 1555 1556 1556 1556 1557 1557 1558 1558 1558 1558 1559 1559 1559 1559 1559 1559 1560 1560
1514 1516 1518 1520 1523 1525 1528 1531 1534 1536 1538 1540 1542 1544 1545 1547 1548 1549 1550 1551 1552 1552 1553 1553 1554 1555 1555 1555 1555 1556 1556 1557 1557 1558 1558 1558 1558 1559 1559 1559 1559 1559 1560
1513 1515 1517 1519 1521 1523 1526 1529 1531 1534 1536 1538 1540 1542 1543 1545 1546 1547 1548 1549 1550 1551 1552 1552 1553 1553 1554 1554 1555 1555 1556 1556 1556 1557 1557 1557 1558 1558 1558 1558 1558 1558 1559
1513 1514 1515 1517 1519 1521 1523 1526 1529 1531 1534 1536 1538 1540 1541 1543 1544 1545 1547 1548 1549 1549 1550 1551 1552 1552 1553 1553 1554 1554 1555 1555 1555 1556 1556 1556 1557 1557 1557 1557 1557 1557 1558
1512 1513 1514 1515 1517 1519 1521 1523 1526 1529 1531 1533 1535 1537 1539 1541 1542 1543 1545 1546 1547 1548 1548 1549 1550 1551 1552 1552 1553 1553 1554 1554 1554 1555 1555 1555 1556 1556 1556 1556 1556 1556 1557
1510 1511 1512 1513 1515 1517 1518 1521 1523 1526 1528 1530 1533 1535 1537 1538 1540 1541 1543 1544 1545 1546 1547 1548 1548 1549 1550 1550 1551 1552 1552 1553 1553 1553 1554 1554 1554 1555 1555 1555 1555 1555 1555
1509 1510 1510 1512 1513 1514 1516 1518 1520 1522 1525 1527 1529 1532 1534 1535 1537 1539 1540 1542 1543 1544 1545 1546 1547 1547 1548 1549 1550 1550 1551 1551 1551 1552 1552 1553 1553 1553 1553 1554 1554 1554 1554
1508 1508 1509 1510 1511 1512 1513 1515 1517 1520 1522 1524 1527 1529 1531 1533 1534 1536 1538 1539 1540 1541 1543 1544 1545 1545 1546 1547 1548 1549 1549 1549 1550 1550 1551 1551 1551 1551 1552 1552 1552 1552 1552
1506 1506 1506 1507 1508 1510 1511 1513 1515 1517 1519 1521 1524 1526 1528 1530 1531 1533 1535 1536 1537 1539 1540 1541 1542 1543 1544 1545 1546 1546 1547 1547 1547 1548 1549 1549 1549 1550 1550 1550 1550 1550 1550
1504 1504 1504 1504 1505 1507 1508 1510 1512 1514 1516 1518 1520 1522 1525 1526 1528 1530 1531 1533 1534 1536 1537 1539 1540 1541 1542 1542 1543 1544 1544 1544 1545 1545 1546 1547 1547 1547 1547 1547 1547 1547 1547
1501 1501 1501 1501 1502 1504 1505 1507 1509 1511 1513 1515 1517 1519 1521 1523 1525 1526 1528 1530 1531 1533 1534 1535 1537 1538 1539 1540 1540 1541 1541 1542 1542 1542 1543 1544 1544 1544 1545 1544 1545 1544 1545
1499 1499 1499 1499 1500 1501 1503 1504 1506 1507 1510 1512 1514 1516 1518 1519 1521 1523 1525 1526 1528 1529 1530 1532 1533 1535 1536 1537 1538 1538 1539 1539 1539 1539 1540 1541 1541 1541 1542 1542 1541 1541 1542
1496 1496 1496 1496 1497 1499 1500 1501 1502 1505 1507 1509 1511 1513 1514 1516 1518 1519 1521 1522 1524 1525 1527 1528 1529 1530 1532 1533 1534 1535 1536 1536 1536 1536 1537 1538 1538 1538 1538 1538 1538 1538 1538
1493 1493 1493 1494 1495 1496 1497 1498 1500 1502 1504 1505 1507 1509 1511 1512 1514 1516 1517 1518 1520 1521 1522 1523 1525 1526 1527 1529 1530 1531 1532 1532 1533 1533 1534 1534 1534 1534 1535 1535 1535 1535 1535
1490 1490 1491 1491 1492 1493 1494 1496 1498 1499 1501 1502 1504 1505 1507 1508 1510 1512 1513 1514 1515 1517 1518 1519 1520 1522 1523 1524 1526 1527 1528 1529 1529 1530 1530 1530 1530 1531 1531 1531 1531 1531 1531
1487 1488 1488 1488 1489 1490 1491 1493 1495 1497 1498 1499 1501 1502 1503 1505 1506 1507 1509 1510 1512 1513 1514 1515 1516 1517 1518 1520 1522 1523 1524 1525 1525 1526 1526 1526 1526 1526 1527 1527 1528 1528 1527
1485 1485 1485 1486 1487 1488 1489 1490 1492 1493 1495 1496 1498 1499 1500 1501 1502 1503 1505 1506 1508 1509 1510 1511 1512 1513 1515 1516 1518 1519 1520 1521 1522 1522 1521 1522 1522 1522 1523 1523 1523 1523 1523